Location: Murdochville
(48.9591°N, 65.4950°W)
Time: 22:23:03
(UTC-04:00)

Envisat - Pass Details

Date: 19 April 2026
Orbit: 761 x 762 km, 98.4° (Epoch: 15 May)

Event Time Altitude Azimuth Distance (km) Brightness Sun altitude
Rises 03:06:02 0° 14° (NNE) 3,236 7.3 -19.7°
Reaches altitude 10° 03:08:21 10° 16° (NNE) 2,305 6.4 -19.5°
Maximum altitude 03:13:26 82° 104° (ESE) 775 3.0 -18.9°
Enters shadow 03:16:10 28° 190° (S) 1,400 3.9 -18.6°
